TimeMST,TemperatureF,Dew PointF,Humidity,Sea Level PressureIn,VisibilityMPH,Wind Direction,Wind SpeedMPH,Gust SpeedMPH,PrecipitationIn,Events,Conditions,WindDirDegrees,DateUTC
12:53 AM,48.9,21.9,35,30.07,10.0,WSW,3.5,-,0.00,,Mostly Cloudy,250,2012-11-17 07:53:00
1:53 AM,46.9,23.0,39,30.07,10.0,Calm,Calm,-,N/A,,Mostly Cloudy,0,2012-11-17 08:53:00
2:53 AM,46.9,21.9,37,30.06,10.0,SE,6.9,-,N/A,,Overcast,140,2012-11-17 09:53:00
3:53 AM,46.9,21.9,37,30.06,10.0,Calm,Calm,-,N/A,,Mostly Cloudy,0,2012-11-17 10:53:00
4:53 AM,46.9,23.0,39,30.06,10.0,Calm,Calm,-,N/A,,Overcast,0,2012-11-17 11:53:00
5:53 AM,45.0,23.0,42,30.08,10.0,Calm,Calm,-,N/A,,Mostly Cloudy,0,2012-11-17 12:53:00
6:53 AM,46.0,24.1,42,30.09,10.0,WNW,3.5,-,N/A,,Overcast,290,2012-11-17 13:53:00
7:53 AM,48.0,25.0,41,30.10,10.0,Calm,Calm,-,N/A,,Clear,0,2012-11-17 14:53:00
8:53 AM,50.0,27.0,41,30.10,10.0,Calm,Calm,-,N/A,,Clear,0,2012-11-17 15:53:00
9:53 AM,54.0,28.9,38,30.09,10.0,Calm,Calm,-,N/A,,Overcast,0,2012-11-17 16:53:00
10:53 AM,55.9,28.0,34,30.08,10.0,ENE,3.5,-,N/A,,Clear,60,2012-11-17 17:53:00
11:53 AM,59.0,28.0,31,30.04,10.0,Calm,Calm,-,N/A,,Overcast,0,2012-11-17 18:53:00
12:53 PM,60.1,28.0,30,30.01,10.0,North,5.8,-,N/A,,Partly Cloudy,10,2012-11-17 19:53:00
1:53 PM,63.0,28.9,28,29.98,10.0,NNE,4.6,-,N/A,,Clear,20,2012-11-17 20:53:00
2:53 PM,64.9,30.0,27,29.96,10.0,Calm,Calm,-,N/A,,Mostly Cloudy,0,2012-11-17 21:53:00
3:53 PM,62.1,30.0,30,29.95,10.0,NNW,4.6,-,N/A,,Overcast,330,2012-11-17 22:53:00
4:53 PM,60.8,30.2,31,30.03,10.0,Calm,Calm,-,N/A,,Partly Cloudy,0,2012-11-17 23:53:00
5:53 PM,57.0,32.0,39,29.95,10.0,NW,3.5,-,N/A,,Partly Cloudy,320,2012-11-18 00:53:00
6:53 PM,55.0,30.9,40,29.96,9.0,SW,4.6,-,N/A,,Scattered Clouds,220,2012-11-18 01:53:00
7:53 PM,55.0,30.0,38,29.95,10.0,SSW,4.6,-,N/A,,Partly Cloudy,210,2012-11-18 02:53:00
8:53 PM,52.0,30.0,43,29.97,10.0,SSE,5.8,-,N/A,,Mostly Cloudy,160,2012-11-18 03:53:00
9:53 PM,55.9,32.0,40,29.96,10.0,Calm,Calm,-,N/A,,Mostly Cloudy,0,2012-11-18 04:53:00
10:53 PM,53.1,32.0,45,29.98,9.0,Calm,Calm,-,N/A,,Overcast,0,2012-11-18 05:53:00
11:53 PM,52.0,32.0,47,29.98,10.0,Calm,Calm,-,N/A,,Mostly Cloudy,0,2012-11-18 06:53:00